This demonstration page uses our WeatherBlox Daily Observations layout. Learn more.

Left ArrowRight Arrow

38.20091, -84.87328

Hourly Observations for August 20, 2022

Temp ( °F °C ) Dew Point ( °F °C ) Humidity (%) Winds ( mph kmh ) Pressure ( in mb ) Visibility ( mi km ) Precip ( " mm )
12:53 am 00:53 Clear 67 19.4 64 17.8 90 90 Calm 30.01 1016 10 16 0.00 0.00
1:53 am 01:53 Mostly Clear 67 19.4 64 17.8 90 90 Calm 30.02 1017 10 16 0.00 0.00
2:53 am 02:53 Clear 67 19.4 64 17.8 90 90 Calm 30.02 1017 10 16 0.00 0.00
3:53 am 03:53 Mostly Clear 69 20.6 65 18.3 87 87 SSE 6 9 30.01 1016 10 16 0.00 0.00
4:53 am 04:53 Clear 68 20 65 18.3 90 90 Calm 30.00 1016 10 16 0.00 0.00
5:53 am 05:53 Clear 68 20 65 18.3 90 90 Calm 30.02 1017 10 16 0.00 0.00
6:53 am 06:53 Partly Cloudy 69 20.6 66 18.9 90 90 SSE 5 7 30.03 1017 10 16 0.00 0.00
7:53 am 07:53 Sunny 71 21.7 67 19.4 87 87 S 7 11 30.05 1018 10 16 0.00 0.00
8:53 am 08:53 Sunny 74 23.3 68 20 82 82 S 10 17 30.07 1018 10 16 0.00 0.00
9:53 am 09:53 Partly Cloudy 76 24.4 69 20.6 79 79 SSW 8 13 30.07 1018 10 16 0.00 0.00
10:53 am 10:53 Partly Cloudy 79 26.1 70 21.1 74 74 WSW 8 13 30.08 1019 10 16 0.00 0.00
11:53 am 11:53 Partly Cloudy 81 27.2 71 21.7 72 72 SW 7 11 30.08 1019 10 16 0.00 0.00
12:02 pm 12:02 Mostly Cloudy 81 27.2 71 21.7 72 72 SW 7 11 30.06 1018 10 16 0.00 0.00
12:28 pm 12:28 Mostly Cloudy 83 28.3 72 22.2 70 70 S 6 9 30.05 1018 10 16 0.00 0.00
12:53 pm 12:53 Mostly Cloudy 83 28.3 71 21.7 67 67 SW 8 13 30.06 1018 10 16 0.00 0.00
1:16 pm 13:16 Mostly Cloudy 85 29.4 71 21.7 63 63 SSW 9 15 30.04 1017 10 16 0.00 0.00
1:53 pm 13:53 Mostly Sunny 86 30 71 21.7 61 61 VRB 6 9 30.04 1017 10 16 0.00 0.00
2:53 pm 14:53 Mostly Cloudy with Heavy Rain 80 26.7 71 21.7 74 74 WSW 13 20 30.03 1017 2 2 0.10 2.54
2:56 pm 14:56 Mostly Cloudy with Heavy Rain 77 25 71 21.7 82 82 WNW 10 17 30.02 1017 1 1 0.07 1.78
3:10 pm 15:10 Cloudy with Thunderstorms 77 25 69 20.6 77 77 NE 7 11 30.01 1016 1 1 0.28 7.11
3:13 pm 15:13 Cloudy with Thunderstorms 78 25.6 70 21.1 76 76 ENE 7 11 30.01 1016 1 2 0.28 7.11
3:15 pm 15:15 Cloudy with Thunderstorms 79 26.1 71 21.7 77 77 VRB 6 9 30.01 1016 4 6 0.28 7.11
3:33 pm 15:33 Partly Cloudy with Nearby Thunderstorms 82 27.8 72 22.2 72 72 Calm 30.00 1016 10 16 0.28 7.11
3:44 pm 15:44 Mostly Sunny 81 27.2 72 22.2 74 74 E 6 9 30.00 1016 10 16 0.28 7.11
3:53 pm 15:53 Partly Cloudy 82 27.8 72 22.2 72 72 Calm 30.01 1016 10 16 0.28 7.11
4:53 pm 16:53 Mostly Sunny 79 26.1 73 22.8 82 82 SSW 5 7 30.00 1016 10 16 0.04 1.02
5:53 pm 17:53 Sunny 82 27.8 72 22.2 72 72 SSW 9 15 29.97 1015 10 16 0.00 0.00
6:53 pm 18:53 Partly Cloudy with Nearby Thunderstorms 82 27.8 71 21.7 69 69 Calm 29.99 1016 10 16 0.00 0.00
7:05 pm 19:05 Mostly Cloudy 81 27.2 72 22.2 74 74 S 10 17 29.97 1015 10 16 0.00 0.00
7:16 pm 19:16 Partly Cloudy 79 26.1 71 21.7 77 77 S 10 17 29.99 1015 10 16 0.00 0.00
7:53 pm 19:53 Sunny 78 25.6 71 21.7 79 79 S 7 11 29.99 1016 10 16 0.00 0.00
8:53 pm 20:53 Clear 76 24.4 71 21.7 85 85 SSE 6 9 30.00 1016 10 16 0.00 0.00
9:53 pm 21:53 Mostly Clear 75 23.9 71 21.7 88 88 S 5 7 30.00 1016 10 16 0.00 0.00
10:53 pm 22:53 Mostly Cloudy 74 23.3 71 21.7 91 91 SW 5 7 30.01 1016 10 16 0.00 0.00
11:53 pm 23:53 Mostly Cloudy 75 23.9 71 21.7 88 88 SSE 5 7 30.00 1016 10 16 0.00 0.00

Powered by AerisWeather